Regional Weather Roundup
Issued by NWS

Home | Current Version | Previous Version | Graphics & Text | Print | Product List | Glossary On
Versions: 1 2 3 4 5 6 7 8 9 10 11 12 13 14 15 16 17 18 19 20 21 22 23 24
000
ASUS45 KCYS 221610
RWRWY

WYOMING REGIONAL WEATHER ROUNDUP
NATIONAL WEATHER SERVICE CHEYENNE WY
1000 AM MDT WED OCT 22 2014

NOTE:  "FAIR" INDICATES FEW OR NO CLOUDS BELOW 12,000 FEET
WITH NO SIGNIFICANT WEATHER AND/OR OBSTRUCTIONS TO VISIBILITY.

WYZ001-221700-
YELLOWSTONE NATIONAL PARK

CITY           SKY/WX    TMP DP  RH WIND       PRES   REMARKS
LK YELLOWSTONE   N/A     32  27  81 VRB7      30.21R WCI  26
W YELLOWSTONE  NOT AVBL

$$
WYZ002>013-054>058-071-098>099-221700-
NORTHERN WYOMING

CITY           SKY/WX    TMP DP  RH WIND       PRES   REMARKS
JACKSON        SUNNY     37  30  75 S5        30.21R WCI  34
CODY           SUNNY    N/A N/A N/A W13G28    30.07R
GREYBULL       SUNNY     42  24  49 CALM      30.10R
WORLAND        SUNNY     45  26  47 SW6       30.10R
SHERIDAN       SUNNY     52  29  41 SE6       30.05S
BUFFALO        SUNNY     48  27  44 S14       30.08R
GILLETTE       SUNNY     50  29  44 W8        30.07R
HULETT         FAIR      50  32  50 SW12      30.05
NEWCASTLE      FAIR      50  32  50 NW12G17   30.07

$$
WYZ014>020-022>026-101>103-221700-
CENTRAL WYOMING

CITY           SKY/WX    TMP DP  RH WIND       PRES   REMARKS
BIG PINEY      SUNNY     31  26  82 CALM      30.24R
PINEDALE       SUNNY     32  30  93 W3        30.24R
DUBOIS         FAIR      37  23  56 N15G22    30.15R WCI  28
LANDER         SUNNY     46  24  42 CALM      30.12R
RIVERTON       SUNNY     46  26  45 NW12      30.13R
CASPER         SUNNY     49  23  36 SW17G23   30.12R
DOUGLAS        SUNNY     50  26  39 NW6       30.13R

$$
WYZ021-027>030-104>119-221700-
SOUTHERN WYOMING

CITY           SKY/WX    TMP DP  RH WIND       PRES   REMARKS
EVANSTON       SUNNY     38  28  67 CALM      30.24R
FORT BRIDGER   FAIR      40  30  66 CALM      30.26R
ROCK SPRINGS   SUNNY     35  28  75 W5        30.23R WCI  31
DIXON          CLOUDY    44  41  89 CALM      30.24S
RAWLINS        SUNNY     41  27  57 W18       30.20R
SARATOGA       CLOUDY    43  34  70 W10       30.21S
LARAMIE        SUNNY     46  35  65 VRB7      30.16S
CHEYENNE       MOSUNNY   55  36  48 W14       30.12S
TORRINGTON     MOSUNNY   55  32  41 NW8       30.09R
PINE BLUFFS    FAIR      54  37  54 NW14G20   30.12R

$$



USA.gov is the U.S. government's official web portal to all federal, state and local government web resources and services.